Regional Weather Roundup
Issued by NWS

Home | Current Version | Previous Version | Graphics & Text | Print | Product List | Glossary Off
Versions: 1 2 3 4 5 6 7 8 9 10 11 12 13 14 15 16 17 18 19 20 21 22 23 24 25 26 27 28 29 30 31 32 33 34 35 36 37 38 39 40 41 42 43 44 45 46 47 48 49 50

000
ASUS43 KTOP 221259
RWRKS

WEATHER ROUNDUP FOR KANSAS
NATIONAL WEATHER SERVICE GOODLAND KS
800 AM CDT TUE MAY 22 2018

NOTE:  "FAIR" INDICATES FEW OR NO CLOUDS BELOW 12,000 FEET WITH NO
SIGNIFICANT WEATHER AND/OR OBSTRUCTIONS TO VISIBILITY.

KSZ001>006-013>018-027>032-041>047-221400-
NORTHWEST KANSAS

CITY           SKY/WX    TMP DP  RH WIND       PRES   REMARKS
GOODLAND       CLOUDY    62  50  64 S12       29.98R
HAYS           MOSUNNY   68  61  78 S8        29.99R
HILL CITY      CLOUDY    66  61  84 SW9       29.97R
RUSSELL        SUNNY     68  64  87 S13       29.98R
$$

KSZ061>065-074>080-084>089-221400-
SOUTHWEST KANSAS

CITY           SKY/WX    TMP DP  RH WIND       PRES   REMARKS
DODGE CITY     MOSUNNY   65  60  84 S16       30.02R
GARDEN CITY    CLOUDY    61  59  93 S9        30.01R
GREAT BEND     SUNNY     67  62  84 S12       30.01S
LIBERAL        MOSUNNY   64  59  83 S10       30.02R
$$

KSZ066>073-081>083-090>101-221400-
SOUTHEAST KANSAS

CITY           SKY/WX    TMP DP  RH WIND       PRES   REMARKS
CHANUTE        CLOUDY    67  64  90 SE8       30.06R
COFFEYVILLE    SUNNY     68  64  87 CALM      30.04R
HUTCHINSON     SUNNY     66  64  93 SE6       30.03R
MEDICINE LODGE   N/A     64  62  93 SE3       30.03R
NEWTON         CLOUDY    66  61  84 S9        30.05R
PARSONS        SUNNY     67  65  93 VRB3      30.06R
WICHITA INTL   CLOUDY    67  64  90 S7        30.03R
WICHITA JABRA  CLOUDY    67  64  90 S5        30.03R
WINFIELD       CLOUDY    67  65  93 SE5       30.04S
$$

KSZ007>012-019>026-033>040-048>060-102>105-221400-
NORTHEAST KANSAS

CITY           SKY/WX    TMP DP  RH WIND       PRES   REMARKS
CONCORDIA      PTSUNNY   66  62  87 S13       30.00S
EMPORIA        CLOUDY    65  62  90 S6        30.05R
LAWRENCE       CLOUDY    64  61  90 CALM      30.05R
MANHATTAN      SUNNY     68  63  84 CALM      30.03R
OLATHE IND     CLOUDY    65  61  87 S7        30.07R
OLATHE EXE     CLOUDY    63  61  93 S6        30.06R
SALINA         SUNNY     69  64  84 S12       30.02R
TOPEKA BILLARD CLOUDY    65  63  93 CALM      30.04S
TOPEKA FORBES  CLOUDY    67  64  90 S7        30.05R
$$




USA.gov is the U.S. government's official web portal to all federal, state and local government web resources and services.